EW8081 Weather Reports


Display with metric or nautical units.
time (UTC)temp
F
wind
direction
speed
MPH
gust
MPH
rain 1hr
in
rain 24hr
in
rain mn
in
humidity
%
barometer
mb
20260506214550 52 328 2.0 8.0 0.00 0.00 0.00 83 1012.4
20260506213100 51 343 2.0 5.0 0.00 0.00 0.00 86 1012.3
20260506211545 50 310 1.0 3.0 0.00 0.00 0.00 87 1012.3
20260506210043 50 309 0.0 4.0 0.00 0.00 0.00 87 1012.3
20260506204549 50 340 1.0 4.0 0.00 0.00 0.00 87 1012.2
20260506203040 50 309 0.0 1.0 0.00 0.00 0.00 86 1012.1
20260506201538 51 308 1.0 3.0 0.00 0.00 0.00 86 1012.1
20260506200036 51 303 2.0 4.0 0.00 0.00 0.00 86 1012.2
20260506194537 52 289 2.0 7.0 0.00 0.00 0.00 87 1012.2
20260506193033 52 297 2.0 5.0 0.00 0.00 0.00 88 1011.9
20260506191530 52 303 1.0 3.0 0.00 0.00 0.00 87 1011.8
20260506190028 52 299 1.0 3.0 0.00 0.00 0.00 86 1011.7
20260506184525 53 305 1.0 4.0 0.00 0.00 0.00 86 1011.4
20260506183023 54 300 2.0 5.0 0.00 0.00 0.00 86 1011.4
20260506181521 54 301 2.0 7.0 0.00 0.00 0.00 85 1011.5
20260506180019 54 307 4.0 8.0 0.00 0.00 0.00 85 1011.4
20260506174517 55 305 1.0 4.0 0.00 0.00 0.00 85 1011.3
20260506173014 55 310 2.0 8.0 0.00 0.00 0.00 84 1011.7
20260506171512 56 305 3.0 7.0 0.00 0.00 0.00 84 1011.5
20260506170008 56 303 3.0 8.0 0.00 0.00 0.00 84 1011.5
20260506164506 57 307 3.0 8.0 0.00 0.00 0.00 83 1011.8
20260506163003 57 299 3.0 8.0 0.00 0.00 0.00 84 1011.9
20260506161616 58 305 4.0 10.0 0.00 0.00 0.00 85 1012.0
20260506160057 58 294 3.0 5.0 0.00 0.00 0.00 86 1012.2
20260506154610 59 301 3.0 7.0 0.00 0.00 0.00 86 1012.3
20260506153059 59 268 2.0 5.0 0.00 0.00 0.00 85 1012.3
20260506151552 60 301 5.0 9.0 0.00 0.00 0.00 86 1012.4
20260506150049 60 345 2.0 9.0 0.00 0.00 0.00 87 1012.6
20260506144547 60 314 2.0 6.0 0.00 0.00 0.00 88 1012.6
20260506143100 60 333 2.0 5.0 0.00 0.00 0.00 88 1012.7
20260506141544 60 337 2.0 8.0 0.00 0.00 0.00 88 1012.7
20260506140041 60 332 2.0 8.0 0.00 0.00 0.00 88 1012.8
20260506134540 60 310 3.0 7.0 0.00 0.00 0.00 88 1012.8
20260506133040 61 318 3.0 9.0 0.00 0.00 0.00 88 1013.0
20260506131537 61 303 2.0 6.0 0.00 0.00 0.00 88 1013.1
20260506130036 61 291 2.0 7.0 0.00 0.00 0.00 88 1013.3
20260506124535 61 333 3.0 8.0 0.00 0.00 0.00 87 1013.3
20260506123035 62 332 2.0 8.0 0.00 0.00 0.00 87 1013.6
20260506121538 61 324 4.0 8.0 0.00 0.00 0.00 88 1013.9
20260506120029 61 318 1.0 4.0 0.00 0.00 0.00 88 1014.1
20260506114534 61 328 2.0 4.0 0.00 0.00 0.00 88 1014.2
20260506113027 61 336 1.0 4.0 0.00 0.00 0.00 88 1014.3
20260506111525 61 338 1.0 4.0 0.00 0.00 0.00 89 1014.6
20260506110028 61 343 1.0 3.0 0.00 0.00 0.00 88 1014.6
20260506104524 61 353 1.0 3.0 0.00 0.00 0.00 87 1014.6
20260506103023 61 360 0.0 3.0 0.00 0.00 0.00 87 1014.5
20260506101524 61 28 0.0 2.0 0.00 0.00 0.00 87 1014.6
20260506100022 61 28 0.0 2.0 0.00 0.00 0.00 87 1014.6
20260506094521 61 28 0.0 2.0 0.00 0.00 0.00 86 1014.6
20260506093024 61 28 0.0 3.0 0.00 0.00 0.00 85 1014.7
20260506091523 62 30 1.0 3.0 0.00 0.00 0.00 84 1014.7
20260506090022 63 66 0.0 3.0 0.00 0.00 0.00 83 1014.7
20260506084517 64 44 1.0 3.0 0.00 0.00 0.00 82 1014.8
20260506083017 64 75 1.0 6.0 0.00 0.00 0.00 83 1014.8
20260506081516 63 102 0.0 4.0 0.00 0.00 0.00 83 1014.7
20260506073013 65 93 0.0 2.0 0.00 0.00 0.00 78 1014.7
20260506071513 65 197 0.0 2.0 0.00 0.00 0.00 76 1014.6
20260506061513 76 179 1.0 3.0 0.00 0.00 0.00 59 1014.9
20260506044500 75 168 4.0 8.0 0.00 0.00 0.00 59 1015.5
20260506043059 76 163 3.0 8.0 0.00 0.00 0.00 56 1015.6
20260506041558 77 170 3.0 7.0 0.00 0.00 0.00 56 1015.6
20260506034608 76 187 3.0 5.0 0.00 0.00 0.00 56 1016.1
20260506033052 76 176 3.0 8.0 0.00 0.00 0.00 56 1016.3
20260506031558 76 172 3.0 8.0 0.00 0.00 0.00 56 1016.4
20260506030048 78 194 2.0 7.0 0.00 0.00 0.00 48 1016.6
20260506024545 79 201 5.0 9.0 0.00 0.00 0.00 49 1016.8
20260506023043 74 241 2.0 6.0 0.00 0.00 0.00 56 1017.0
20260506021541 73 205 2.0 7.0 0.00 0.00 0.00 54 1017.3
20260506020039 75 197 3.0 10.0 0.00 0.00 0.00 56 1017.5
20260506014537 73 216 2.0 6.0 0.00 0.00 0.00 53 1017.8
20260506013034 74 210 1.0 7.0 0.00 0.00 0.00 51 1018.2
20260506011536 77 299 4.0 9.0 0.00 0.00 0.00 47 1018.4
20260506010029 75 290 3.0 10.0 0.00 0.00 0.00 49 1018.6
20260506004527 70 292 3.0 9.0 0.00 0.00 0.00 55 1018.6
20260506003025 70 260 3.0 11.0 0.00 0.00 0.00 54 1018.9
20260506001524 71 296 4.0 10.0 0.00 0.00 0.00 54 1018.7
20260506000023 69 307 5.0 9.0 0.00 0.00 0.00 56 1018.8
20260505234521 66 307 4.0 9.0 0.00 0.00 0.00 60 1018.9
20260505233018 69 297 5.0 11.0 0.00 0.00 0.00 56 1018.8
20260505231526 67 289 5.0 11.0 0.00 0.00 0.00 56 1018.9
20260505230021 66 274 6.0 12.0 0.00 0.00 0.00 58 1018.8
20260505224508 64 294 6.0 13.0 0.00 0.00 0.00 60 1018.9
20260505223003 63 280 6.0 12.0 0.00 0.00 0.00 64 1018.8
20260505221601 60 311 6.0 12.0 0.00 0.00 0.00 68 1019.0
20260505220059 58 303 9.0 14.0 0.00 0.00 0.00 70 1018.9